[[{"header":{"parameterUnit":"m.s-1","parameterCategory":1,"la1":30.2991,"la2":30.254,"lo1":-89.0895,"lo2":-89.0444,"dy":0.0017,"dx":0.0017,"nx":28,"ny":28,"refTime":"2023-03-22T21:00:00:Z","depth":0,"parameterNumber":2,"parameterNumberName":"U-component_of_WINDS"},"data":[0,0,0,0,0,0,0,0,0,0,0,0,0,0,0,0,0,0,0,0,0,0,0,0,0,0,0,0,0,0,0,0,0,0,0,0,0,0,0,0,0,0,0,0,0,0,0,0,0,0,0,0,0,0,0,0,0,0,-2.7098,-2.7099,0,-2.7146,-2.7146,-2.7147,-2.7127,-2.7125,-2.7124,-2.7123,-2.7171,-2.7174,-2.7176,0,0,0,0,0,0,0,0,0,0,0,0,0,-2.699,-2.6992,-2.7098,-2.7099,-2.7099,-2.7146,-2.7146,-2.7147,-2.7127,-2.7125,-2.7124,-2.7123,-2.7171,-2.7173,-2.7176,0,0,0,0,0,0,0,0,0,0,0,0,0,-2.7037,-2.6993,-2.7098,-2.7095,-2.7095,-2.7145,-2.7146,-2.7147,-2.7127,-2.7125,-2.7124,-2.7122,-2.717,-2.7173,-2.7177,-2.7233,0,0,-2.7187,-2.7189,0,0,0,0,0,0,0,0,-2.7034,-2.7041,-2.7095,-2.7095,-2.7095,-2.7128,-2.7126,-2.7176,-2.7127,-2.7115,-2.7123,-2.7121,-2.7158,-2.7163,-2.7176,-2.7235,-2.7237,-2.7188,-2.719,-2.7191,-2.7192,0,0,0,0,0,0,0,-2.7031,-2.7039,-2.7117,-2.7095,-2.7096,-2.7091,-2.7096,-2.7135,-2.7146,-2.7116,-2.7114,-2.712,-2.7158,-2.7172,-2.7176,-2.7238,-2.7188,-2.7191,-2.7193,-2.7194,-2.7346,-2.7348,0,0,0,0,0,0,-2.7028,-2.7036,-2.7115,-2.7118,-2.706,-2.7094,-2.71,-2.712,-2.7145,-2.7147,-2.7122,-2.7119,-2.7167,-2.7172,-2.7178,-2.7245,-2.7191,-2.7195,-2.7197,-2.7344,-2.7346,-2.7348,0,0,0,0,0,0,-2.7026,-2.7035,-2.7113,-2.7077,-2.7087,-2.7098,-2.712,-2.7121,-2.7135,-2.715,-2.7152,-2.7134,-2.7166,-2.7173,-2.7219,-2.7246,-2.7196,-2.7199,-2.7342,-2.7345,-2.7347,-2.738,0,0,0,0,0,0,-2.7023,-2.7034,-2.7056,-2.7078,-2.7089,-2.7154,-2.7122,-2.7124,-2.7141,-2.7138,-2.7162,-2.7164,-2.7165,-2.7214,-2.7223,-2.725,-2.7202,-2.7339,-2.7343,-2.7346,-2.7376,-2.7383,-2.7389,0,0,0,0,0,-2.7019,-2.7063,-2.7057,-2.7067,-2.7115,-2.7155,-2.7162,-2.7162,-2.7144,-2.7165,-2.7175,-2.7163,-2.7243,-2.7219,-2.7229,-2.7258,-2.7338,-2.7342,-2.7346,-2.7373,-2.7382,-2.7389,0,0,0,0,0,0,-2.7043,-2.7066,-2.7059,-2.7112,-2.7132,-2.7152,-2.7179,-2.7172,-2.7197,-2.7193,-2.7193,-2.7199,-2.7246,-2.7257,-2.723,-2.7313,-2.7287,-2.7294,-2.7304,-2.7313,-2.7319,-2.7315,-2.7205,0,0,0,0,0,-2.7055,-2.7086,-2.7104,-2.7148,-2.7159,-2.7167,-2.7185,-2.7184,-2.7204,-2.7213,-2.7226,-2.7246,-2.7276,-2.7295,-2.7323,-2.7378,-2.7383,-2.7403,-2.741,-2.7415,-2.742,-2.7449,-2.7458,-2.7363,-2.7363,-2.7362,0,0,-2.7079,-2.7095,-2.7114,-2.7153,-2.7169,-2.72,-2.7174,-2.7209,-2.7232,-2.7218,-2.7262,-2.7273,-2.7296,-2.7346,-2.7369,-2.7357,-2.7448,-2.742,-2.7425,-2.7427,-2.7455,-2.7464,-2.7472,-2.7365,-2.7365,-2.7364,0,0,-2.7139,-2.7154,-2.7193,-2.7209,-2.7233,-2.7239,-2.7248,-2.727,-2.7276,-2.7321,-2.7311,-2.7339,-2.739,-2.7407,-2.7422,-2.7489,-2.7479,-2.7499,-2.7532,-2.7561,-2.7569,-2.7575,-2.7598,-2.7607,-2.7504,-2.7504,-2.7504,0,-2.7165,-2.7213,-2.7214,-2.7249,-2.7266,-2.7256,-2.7295,-2.7311,-2.7342,-2.7355,-2.734,-2.7404,-2.7419,-2.7473,-2.749,-2.7503,-2.7513,-2.7495,-2.7567,-2.7574,-2.758,-2.7602,-2.7611,-2.7506,-2.7506,-2.7506,-2.7505,0,-2.7244,-2.7277,-2.7305,-2.7336,-2.7357,-2.7394,-2.7401,-2.7422,-2.742,-2.7427,-2.7473,-2.7491,-2.7522,-2.7535,-2.7533,-2.7589,-2.7581,-2.7567,-2.754,-2.7592,-2.7612,-2.7621,-2.7509,-2.7508,-2.7508,-2.7507,0,0,-2.7319,-2.7351,-2.7361,-2.7375,-2.7401,-2.7427,-2.7464,-2.7495,-2.7512,-2.7536,-2.7566,-2.761,-2.7598,-2.7615,-2.7615,-2.7641,-2.7692,-2.7624,-2.7625,-2.7635,-2.7755,-2.7764,-2.7773,-2.7687,-2.7688,-2.769,-2.7752,0,-2.7379,-2.7444,-2.7446,-2.7505,-2.7535,-2.7526,-2.7558,-2.7578,-2.7586,-2.7613,-2.7622,-2.7653,-2.7635,-2.7645,-2.767,-2.7681,-2.7716,-2.7676,-2.7714,-2.7716,-2.7707,-2.7784,-2.7794,-2.7852,-2.7761,-2.7762,-2.7763,0,-2.7458,-2.7484,-2.7545,-2.7567,-2.758,-2.7609,-2.7638,-2.7664,-2.7686,-2.769,-2.771,-2.7707,-2.7745,-2.7718,-2.777,-2.7743,-2.7759,-2.7767,-2.7769,-2.7771,-2.7741,-2.7787,-2.787,-2.7879,-2.7776,-2.7775,-2.7774,0,-2.7505,-2.7555,-2.7598,-2.7611,-2.7638,-2.7658,-2.7671,-2.7691,-2.771,-2.7735,-2.7747,-2.7777,-2.7793,-2.7816,-2.7821,-2.7801,-2.7872,-2.7846,-2.7876,-2.7876,-2.789,-2.7889,-2.7976,-2.7903,-2.7903,-2.7903,-2.7903,0,-2.7572,-2.7609,-2.762,-2.7646,-2.7688,-2.7691,-2.7733,-2.7744,-2.7763,-2.7791,-2.7786,-2.7812,-2.7818,-2.7846,-2.785,-2.7892,-2.79,-2.7904,-2.7904,-2.7903,-2.7902,-2.7912,-2.7908,-2.7905,-2.7905,-2.7904,-2.7904,0,-2.763,-2.7639,-2.7685,-2.7707,-2.7714,-2.7744,-2.7763,-2.7788,-2.7797,-2.7833,-2.7841,-2.7854,-2.7887,-2.7894,-2.7933,-2.7936,-2.7986,-2.7983,-2.7978,-2.7977,-2.8006,-2.8003,-2.8101,-2.8113,-2.8034,-2.8035,-2.8036,0,-2.7671,-2.77,-2.7726,-2.7744,-2.7757,-2.7788,-2.7807,-2.7811,-2.7831,-2.786,-2.7882,-2.7914,-2.794,-2.7993,-2.8005,-2.8035,-2.8032,-2.8065,-2.8036,-2.8035,-2.8031,-2.8029,-2.8031,-2.8069,-2.807,-2.8071,-2.8071,0,-2.7743,-2.7746,-2.7773,-2.7803,-2.7825,-2.7849,-2.7871,-2.7887,-2.7894,-2.7917,-2.7951,-2.7971,-2.8011,-2.8043,-2.8073,-2.8086,-2.808,-2.8081,-2.8089,-2.8087,-2.8083,-2.8084,-2.7991,-2.8078,-2.8077,-2.8077,-2.8076,-2.8076,-2.7793,-2.7818,-2.784,-2.7871,-2.7888,-2.7909,-2.7934,-2.7946,-2.7974,-2.8006,-2.8008,-2.8044,-2.8067,-2.8107,-2.8121,-2.815,-2.814,-2.8152,-2.8155,-2.8157,-2.8159,-2.808,-2.8156,-2.8156,-2.8155,-2.8155,-2.8155,0,-2.7863,-2.7877,-2.7906,-2.7937,-2.7961,-2.7954,-2.7979,-2.8,-2.8032,-2.8053,-2.8079,-2.8117,-2.8149,-2.8164,-2.8195,-2.8215,-2.8213,-2.8223,-2.8221,-2.8224,-2.8167,-2.8156,-2.8224,-2.8224,-2.8224,-2.8224,-2.8224,-2.8224,-2.7902,-2.7944,-2.795,-2.8,-2.8014,-2.8049,-2.8064,-2.8083,-2.81,-2.8144,-2.817,-2.818,-2.8199,-2.8232,-2.826,-2.8264,-2.8275,-2.8286,-2.8288,-2.8235,-2.8228,-2.8221,-2.8211,-2.8289,-2.8289,-2.8342,-2.8343,-2.8343]},{"header":{"parameterUnit":"m.s-1","parameterCategory":1,"la1":30.2991,"la2":30.254,"lo1":-89.0895,"lo2":-89.0444,"dy":0.0017,"dx":0.0017,"nx":28,"ny":28,"refTime":"2023-03-22T21:00:00:Z","depth":0,"parameterNumber":3,"parameterNumberName":"V-component_of_WINDS"},"data":[0,0,0,0,0,0,0,0,0,0,0,0,0,0,0,0,0,0,0,0,0,0,0,0,0,0,0,0,0,0,0,0,0,0,0,0,0,0,0,0,0,0,0,0,0,0,0,0,0,0,0,0,0,0,0,0,0,0,2.0121,2.0121,0,2.0116,2.0116,2.0116,2.0095,2.0095,2.0094,2.0094,2.0088,2.0088,2.0088,0,0,0,0,0,0,0,0,0,0,0,0,0,2.0112,2.0112,2.0121,2.0121,2.0121,2.0116,2.0116,2.0116,2.0095,2.0095,2.0094,2.0094,2.0088,2.0088,2.0088,0,0,0,0,0,0,0,0,0,0,0,0,0,2.0112,2.0113,2.0121,2.011,2.0109,2.0116,2.0116,2.0116,2.0096,2.0095,2.0094,2.0093,2.0088,2.0088,2.0088,2.0105,0,0,2.009,2.009,0,0,0,0,0,0,0,0,2.0112,2.0113,2.0112,2.0111,2.011,2.0106,2.0111,2.0112,2.0096,2.0101,2.0094,2.0093,2.0094,2.0094,2.0095,2.0105,2.0104,2.009,2.009,2.009,2.009,0,0,0,0,0,0,0,2.0112,2.0113,2.0119,2.0112,2.011,2.0105,2.0105,2.0111,2.0101,2.01,2.0099,2.0098,2.0093,2.0094,2.0094,2.0104,2.009,2.009,2.009,2.009,2.0129,2.013,0,0,0,0,0,0,2.0114,2.0113,2.0119,2.0119,2.0109,2.0106,2.0105,2.0108,2.0101,2.01,2.0099,2.0097,2.0094,2.0094,2.0094,2.0114,2.009,2.009,2.0091,2.0129,2.013,2.013,0,0,0,0,0,0,2.0114,2.0115,2.0119,2.0115,2.0116,2.0107,2.011,2.0108,2.0109,2.01,2.0099,2.0102,2.0093,2.0093,2.0103,2.0114,2.0091,2.0091,2.0128,2.0129,2.013,2.0154,0,0,0,0,0,0,2.0114,2.0115,2.0121,2.0116,2.0116,2.0128,2.011,2.0108,2.0109,2.0107,2.0102,2.0101,2.0093,2.0102,2.0103,2.0114,2.0091,2.0127,2.0128,2.013,2.0152,2.0156,2.0159,0,0,0,0,0,2.0114,2.0128,2.0122,2.0122,2.0124,2.0129,2.0129,2.012,2.011,2.0117,2.0112,2.0101,2.0112,2.0103,2.0104,2.0115,2.0126,2.0128,2.013,2.0151,2.0155,2.0159,0,0,0,0,0,0,2.0134,2.0127,2.012,2.0132,2.0132,2.0125,2.0133,2.0125,2.0126,2.0124,2.0112,2.0111,2.0123,2.012,2.011,2.0132,2.0117,2.0119,2.0133,2.0137,2.0141,2.0141,2.0092,0,0,0,0,0,2.014,2.0145,2.0138,2.015,2.015,2.0142,2.0144,2.0137,2.0135,2.0135,2.013,2.0129,2.0132,2.0134,2.0137,2.0152,2.0151,2.016,2.0163,2.0166,2.0168,2.0177,2.0181,2.0136,2.0136,2.0136,0,0,2.0152,2.0149,2.0153,2.0154,2.0152,2.0158,2.0141,2.0148,2.0152,2.0135,2.0144,2.0141,2.0139,2.0152,2.0157,2.0149,2.018,2.0168,2.017,2.0171,2.0179,2.0183,2.0187,2.0138,2.0137,2.0137,0,0,2.0177,2.0175,2.0185,2.0185,2.0183,2.0177,2.018,2.0175,2.0173,2.0182,2.017,2.0175,2.018,2.018,2.018,2.0207,2.0197,2.0208,2.0226,2.0234,2.0238,2.0241,2.0251,2.0255,2.021,2.021,2.021,0,2.0193,2.0201,2.0192,2.0199,2.0201,2.0187,2.0197,2.0197,2.0196,2.0197,2.0189,2.0197,2.0194,2.0207,2.0214,2.0214,2.0217,2.0208,2.0238,2.0241,2.0244,2.0254,2.0258,2.0211,2.0211,2.0211,2.0211,0,2.0221,2.0227,2.0235,2.0236,2.0238,2.0247,2.0239,2.0242,2.0236,2.0231,2.0241,2.0238,2.024,2.0242,2.0235,2.0255,2.025,2.024,2.0226,2.025,2.0259,2.0262,2.0213,2.0213,2.0212,2.0212,0,0,2.0259,2.0254,2.0258,2.0258,2.0256,2.026,2.0269,2.0272,2.0275,2.0275,2.0283,2.0289,2.028,2.028,2.0273,2.0281,2.0304,2.027,2.027,2.0277,2.0326,2.0334,2.0339,2.0297,2.0298,2.0298,2.0326,0,2.0284,2.0299,2.0291,2.0307,2.0313,2.03,2.0308,2.0308,2.0304,2.0308,2.0304,2.0309,2.0296,2.0297,2.0304,2.0299,2.0313,2.0297,2.0304,2.0305,2.0306,2.0343,2.0352,2.0378,2.033,2.033,2.0331,0,2.0315,2.0318,2.0335,2.0332,2.0335,2.0342,2.0344,2.0349,2.0348,2.0345,2.0346,2.0337,2.0346,2.0332,2.0344,2.0333,2.0336,2.0334,2.0335,2.0336,2.032,2.0346,2.0386,2.0391,2.0336,2.0336,2.0335,0,2.0343,2.035,2.0361,2.0362,2.0359,2.0365,2.0364,2.0362,2.0365,2.0367,2.0369,2.0372,2.0373,2.0376,2.0369,2.0358,2.0382,2.0367,2.038,2.0381,2.0386,2.0386,2.0429,2.0387,2.0386,2.0386,2.0386,0,2.0372,2.0383,2.0374,2.0381,2.0393,2.0384,2.0397,2.0394,2.0393,2.04,2.0389,2.0395,2.0384,2.039,2.0384,2.0396,2.0396,2.0394,2.0393,2.0396,2.0396,2.0398,2.0396,2.0387,2.0387,2.0387,2.0387,0,2.0405,2.0399,2.0411,2.0407,2.0407,2.0416,2.0413,2.042,2.0416,2.0425,2.0426,2.0419,2.0425,2.0418,2.0423,2.0419,2.0436,2.0431,2.0436,2.0435,2.045,2.0449,2.0495,2.0501,2.0454,2.0455,2.0455,0,2.0425,2.0433,2.0431,2.0435,2.0435,2.0441,2.0444,2.0436,2.0439,2.044,2.0446,2.0452,2.0455,2.0466,2.0461,2.0465,2.0461,2.0477,2.0462,2.0465,2.0463,2.0463,2.0464,2.0481,2.0481,2.0482,2.0482,0,2.0461,2.0457,2.0462,2.0467,2.0471,2.0473,2.0475,2.0479,2.047,2.0475,2.0481,2.0484,2.049,2.0496,2.0499,2.0498,2.0489,2.0487,2.049,2.0494,2.0497,2.0497,2.0446,2.0486,2.0486,2.0485,2.0485,2.0485,2.0488,2.0496,2.0496,2.0502,2.0503,2.0505,2.0511,2.0508,2.0514,2.0518,2.0513,2.0521,2.0521,2.0524,2.0524,2.0531,2.0524,2.0529,2.053,2.0532,2.0535,2.0496,2.0531,2.0531,2.0531,2.0531,2.0531,0,2.0525,2.0524,2.053,2.0533,2.0539,2.053,2.0532,2.0537,2.0544,2.0545,2.0549,2.0557,2.0563,2.0559,2.0564,2.057,2.0566,2.0572,2.0572,2.0572,2.054,2.0537,2.0575,2.0575,2.0575,2.0575,2.0575,2.0575,2.0544,2.0557,2.0554,2.0567,2.0566,2.0575,2.0577,2.0579,2.058,2.059,2.0595,2.0592,2.0592,2.0597,2.0602,2.06,2.0603,2.0611,2.0608,2.0578,2.0574,2.057,2.0567,2.0611,2.0611,2.064,2.064,2.064]}]]